This is the latest recevied weather packets stored in our database for station/object N6DZK. If no packets are shown the sender has not sent any weather packets the latest 10 day(s).
| Time | Temp. | Humidity | Pressure | Rain* | Wind** | Luminosity | Snow |
|---|---|---|---|---|---|---|---|
| 1777949757 | 15.56° C | 64% | 1014.5 hPa | 0 mm | - | 2 W/m² | - |
| 1777949457 | 15.56° C | 65% | 1014.3 hPa | 0 mm | - | 3 W/m² | - |
| 1777949153 | 15.56° C | 64% | 1014.5 hPa | 0 mm | - | 4 W/m² | - |
| 1777948850 | 15.56° C | 65% | 1014.7 hPa | 0 mm | - | 5 W/m² | - |
| 1777948547 | 15.56° C | 64% | 1014.6 hPa | 0 mm | - | 7 W/m² | - |
| 1777948245 | 15.56° C | 64% | 1014.7 hPa | 0 mm | - | 13 W/m² | - |
| 1777947942 | 16.11° C | 63% | 1014.5 hPa | 0 mm | - | 21 W/m² | - |
| 1777947639 | 16.11° C | 63% | 1014.5 hPa | 0 mm | - | 30 W/m² | - |
| 1777947336 | 16.11° C | 63% | 1014.4 hPa | 0 mm | - | 32 W/m² | - |
| 1777947033 | 16.11° C | 62% | 1014.3 hPa | 0 mm | - | 29 W/m² | - |
| 1777946732 | 16.11° C | 63% | 1014.6 hPa | 0 mm | - | 29 W/m² | - |
| 1777946430 | 16.11° C | 62% | 1014.4 hPa | 0 mm | - | 44 W/m² | - |
| 1777946127 | 16.11° C | 62% | 1014.5 hPa | 0 mm | - | 66 W/m² | - |
| 1777945824 | 16.11° C | 63% | 1014.2 hPa | 0 mm | - | 66 W/m² | - |
| 1777945520 | 16.11° C | 62% | 1014.3 hPa | 0 mm | - | 45 W/m² | - |
| 1777945218 | 16.11° C | 62% | 1014.4 hPa | 0 mm | - | 30 W/m² | - |
| 1777944915 | 16.11° C | 62% | 1014.6 hPa | 0 mm | - | 21 W/m² | - |
| 1777944612 | 16.67° C | 62% | 1014.4 hPa | 0 mm | - | 17 W/m² | - |
| 1777944310 | 16.67° C | 61% | 1014.5 hPa | 0 mm | - | 15 W/m² | - |
| 1777944007 | 16.67° C | 61% | 1014.5 hPa | 0 mm | - | 13 W/m² | - |
| 1777943702 | 16.67° C | 60% | 1014.5 hPa | 0 mm | - | 12 W/m² | - |
| 1777943400 | 16.67° C | 61% | 1014.4 hPa | 0 mm | - | 11 W/m² | - |
| 1777943095 | 16.67° C | 60% | 1014.7 hPa | 0 mm | - | 11 W/m² | - |
| 1777942791 | 16.67° C | 60% | 1014.7 hPa | 0 mm | - | 12 W/m² | - |
| 1777942488 | 17.22° C | 59% | 1014.6 hPa | 0 mm | - | 15 W/m² | - |
* Rain latest hour (hover to see other rain measurements)
** Current wind speed in m/s (hover to see current wind gust speed)